GW3872 Weather Reports


Display with metric or nautical units.
time (UTC)temp
F
wind
direction
speed
MPH
gust
MPH
rain 1hr
in
rain 24hr
in
rain mn
in
humidity
%
barometer
mb
20260906004318 82 97 1.0 3.0 0.00 0.24 0.24 64 1009.8
20260906003830 82 110 1.0 2.0 0.00 0.24 0.24 65 1009.9
20260906003322 82 111 1.0 3.0 0.00 0.24 0.24 65 1009.7
20260906002832 83 111 2.0 3.0 0.00 0.24 0.24 65 1009.5
20260906002323 83 254 0.0 0.0 0.00 0.24 0.24 64 1009.3
20260906001818 84 253 0.0 0.0 0.00 0.24 0.24 65 1009.1
20260906001329 84 253 0.0 0.0 0.00 0.24 0.24 65 1009.1
20260906000819 85 253 0.0 0.0 0.00 0.24 0.24 66 1009.2
20260906000330 85 253 0.0 0.0 0.00 0.24 0.24 66 1009.3
20260905235818 86 253 0.0 0.0 0.00 0.24 0.24 66 1009.4
20260905235329 86 253 0.0 0.0 0.00 0.24 0.24 67 1009.6
20260905234841 87 253 0.0 0.0 0.00 0.24 0.24 67 1009.8
20260905234331 87 253 0.0 0.0 0.00 0.24 0.24 65 1009.8
20260905233843 87 253 0.0 0.0 0.00 0.24 0.24 65 1009.9
20260905233314 87 254 0.0 0.0 0.00 0.24 0.24 67 1009.8
20260905232829 87 253 0.0 0.0 0.00 0.24 0.24 65 1009.9
20260905232320 88 253 0.0 0.0 0.00 0.24 0.24 66 1009.8
20260905231831 88 254 0.0 0.0 0.00 0.24 0.24 65 1009.9
20260905231323 89 253 0.0 0.0 0.00 0.24 0.24 64 1009.9
20260905230814 89 253 0.0 0.0 0.00 0.24 0.24 64 1010.0
20260905230325 89 253 0.0 0.0 0.00 0.24 0.24 65 1010.0
20260905225815 90 253 0.0 0.0 0.00 0.24 0.24 63 1010.0
20260905225326 90 253 0.0 0.0 0.00 0.24 0.24 62 1009.8
20260905224822 90 253 0.0 0.0 0.00 0.24 0.24 61 1009.9
20260905224313 90 254 0.0 0.0 0.00 0.24 0.24 62 1009.9
20260905223825 91 253 0.0 0.0 0.00 0.24 0.24 62 1009.8
20260905223337 91 253 0.0 2.0 0.00 0.24 0.24 62 1009.8
20260905222827 91 253 327.0 2.0 0.00 0.24 0.24 61 1009.8
20260905222316 0 0.0 0.0 0.00 0.24 0.24 1009.9
20260905221826 0 0.0 0.0 0.00 0.24 0.24 1009.8
20260905221318 0 0.0 0.0 0.00 0.24 0.24 1009.8
20260905220849 0 0.0 0.0 0.00 0.24 0.24 1009.9
20260905220326 0 0.0 0.0 0.00 0.24 0.24 1009.8
20260905215814 0 0.0 0.0 0.00 0.24 0.24 1009.6
20260905215325 0 0.0 0.0 0.00 0.24 0.24 1009.7
20260905214817 0 0.0 0.0 0.00 0.24 0.24 1009.7
20260905214348 0 0.0 0.0 0.00 0.24 0.24 1009.7
20260905213825 0 0.0 0.0 0.00 0.24 0.24 1009.7
20260905213330 0 0.0 0.0 0.00 0.24 0.24 1009.6
20260905212821 0 0.0 0.0 0.00 0.24 0.24 1009.6
20260905212352 0 0.0 0.0 0.00 0.24 0.24 1009.6
20260905211902 0 0.0 0.0 0.00 0.24 0.24 1009.7
20260905211340 0 0.0 0.0 0.00 0.24 0.24 1009.7
20260905210841 0 0.0 0.0 0.00 0.24 0.24 1009.7
20260905210332 0 0.0 0.0 0.00 0.24 0.24 1009.8
20260905205840 0 0.0 0.0 0.00 0.24 0.24 1009.9
20260905205351 92 262 3.0 7.0 0.00 0.24 0.24 56 1010.0
20260905204827 92 262 3.0 7.0 0.00 0.24 0.24 56 1010.0
20260905204313 92 328 0.0 6.0 0.00 0.24 0.24 56 1010.1
20260905203824 92 258 4.0 8.0 0.00 0.24 0.24 55 1010.1
20260905203316 92 22 4.0 8.0 0.00 0.24 0.24 57 1010.1
20260905202827 93 276 3.0 5.0 0.00 0.24 0.24 54 1010.1
20260905202318 92 250 1.0 6.0 0.00 0.24 0.24 56 1010.1
20260905201830 92 269 2.0 8.0 0.00 0.24 0.24 57 1010.2
20260905201321 92 253 5.0 8.0 0.00 0.24 0.24 55 1010.3
20260905200813 92 278 3.0 7.0 0.00 0.24 0.24 54 1010.3
20260905200343 92 252 4.0 7.0 0.00 0.24 0.24 55 1010.5
20260905193314 92 227 2.0 9.0 0.00 0.24 0.24 57 1010.9
20260905192824 92 277 2.0 7.0 0.00 0.24 0.24 58 1011.0
20260905192316 91 262 2.0 6.0 0.00 0.24 0.24 58 1011.1
20260905191847 91 233 3.0 8.0 0.00 0.24 0.24 57 1011.1
20260905191321 91 245 3.0 8.0 0.00 0.24 0.24 56 1011.1
20260905190812 91 267 3.0 6.0 0.00 0.24 0.24 59 1011.3
20260905190343 91 253 2.0 5.0 0.00 0.24 0.24 59 1011.2
20260905185831 90 225 2.0 7.0 0.00 0.24 0.24 58 1011.5
20260905185343 89 285 3.0 10.0 0.00 0.24 0.24 60 1011.6
20260905184813 89 265 3.0 10.0 0.00 0.24 0.24 58 1011.5
20260905184324 89 262 3.0 10.0 0.00 0.24 0.24 59 1011.6
20260905183816 89 274 4.0 9.0 0.00 0.24 0.24 58 1011.6
20260905183327 90 251 5.0 8.0 0.00 0.24 0.24 57 1011.6
20260905182823 89 215 3.0 9.0 0.00 0.24 0.24 59 1011.7
20260905182314 89 250 4.0 9.0 0.00 0.24 0.24 58 1011.7
20260905181826 89 250 4.0 11.0 0.00 0.24 0.24 60 1011.9
20260905181317 89 274 5.0 11.0 0.00 0.24 0.24 56 1011.9
20260905180829 89 221 3.0 6.0 0.00 0.24 0.24 59 1011.9
20260905180340 88 238 3.0 6.0 0.00 0.24 0.24 61 1011.9
20260905175849 88 273 3.0 7.0 0.00 0.24 0.24 62 1012.0
20260905175319 88 263 2.0 8.0 0.00 0.24 0.24 63 1012.0
20260905174851 87 276 4.0 6.0 0.00 0.24 0.24 62 1012.0
20260905173823 87 271 3.0 7.0 0.00 0.24 0.24 60 1012.1
20260905173315 88 283 4.0 6.0 0.00 0.24 0.24 60 1012.2
20260905172827 88 253 2.0 6.0 0.00 0.24 0.24 61 1012.2
20260905172318 87 267 3.0 6.0 0.00 0.24 0.24 59 1012.3
20260905171830 87 290 4.0 6.0 0.00 0.24 0.24 59 1012.4
20260905171320 87 283 3.0 6.0 0.00 0.24 0.24 58 1012.4
20260905170812 86 211 2.0 6.0 0.00 0.24 0.24 61 1012.5
20260905170324 87 262 3.0 6.0 0.00 0.24 0.24 61 1012.5
20260905165817 88 266 4.0 5.0 0.00 0.24 0.24 59 1012.6
20260905165328 88 243 1.0 5.0 0.00 0.24 0.24 59 1012.6
20260905164819 87 240 1.0 4.0 0.00 0.24 0.24 59 1012.7
20260905164351 87 246 2.0 5.0 0.00 0.24 0.24 60 1012.8
20260905163821 88 271 2.0 4.0 0.00 0.24 0.24 57 1012.8
20260905163353 88 250 1.0 3.0 0.00 0.24 0.24 59 1012.8
20260905162823 87 201 1.0 3.0 0.00 0.24 0.24 59 1012.9
20260905162313 87 245 1.0 6.0 0.00 0.24 0.24 61 1012.9
20260905161824 87 222 2.0 6.0 0.00 0.24 0.24 59 1012.9
20260905161335 87 231 1.0 3.0 0.00 0.24 0.24 61 1012.9
20260905160824 87 249 0.0 3.0 0.00 0.24 0.24 61 1012.8
20260905160318 86 232 1.0 4.0 0.00 0.24 0.24 62 1012.8
20260905155828 85 208 2.0 5.0 0.00 0.24 0.24 63 1012.8
20260905155320 85 257 1.0 4.0 0.00 0.24 0.24 63 1012.8
20260905154812 85 145 2.0 6.0 0.00 0.24 0.24 62 1012.9
20260905154324 84 221 2.0 9.0 0.00 0.24 0.24 63 1012.9
20260905153815 84 280 3.0 9.0 0.00 0.24 0.24 63 1013.0
20260905153326 84 207 2.0 6.0 0.00 0.24 0.24 65 1012.8
20260905152837 84 267 2.0 6.0 0.00 0.24 0.24 63 1012.9
20260905152328 84 253 1.0 4.0 0.00 0.24 0.24 64 1013.0
20260905151315 83 238 0.0 6.0 0.00 0.24 0.24 65 1013.0
20260905150827 82 199 3.0 8.0 0.00 0.24 0.24 64 1012.9
20260905150318 82 232 2.0 8.0 0.00 0.24 0.24 64 1013.0
20260905145840 82 158 1.0 3.0 0.00 0.24 0.24 63 1013.0
20260905145328 81 89 1.0 5.0 0.00 0.24 0.24 65 1012.8
20260905144818 81 246 3.0 5.0 0.00 0.24 0.24 64 1012.8
20260905144329 81 249 1.0 4.0 0.00 0.24 0.24 65 1012.8
20260905143820 80 248 1.0 5.0 0.00 0.24 0.24 65 1012.9
20260905143316 79 181 0.0 6.0 0.00 0.24 0.24 65 1013.0
20260905142828 78 219 2.0 6.0 0.00 0.24 0.24 65 1013.1
20260905142339 78 148 1.0 6.0 0.00 0.24 0.24 64 1013.2
20260905141830 77 152 2.0 6.0 0.00 0.24 0.24 64 1013.3
20260905141341 77 120 1.0 7.0 0.00 0.24 0.24 63 1013.5
20260905140832 76 120 3.0 7.0 0.00 0.24 0.24 64 1013.5
20260905140323 76 84 2.0 5.0 0.00 0.24 0.24 63 1013.5
20260905135831 76 126 2.0 4.0 0.00 0.24 0.24 62 1013.6
20260905135323 75 23 0.0 3.0 0.00 0.24 0.24 60 1013.7
20260905134814 74 125 1.0 5.0 0.00 0.24 0.24 60 1013.8
20260905134329 74 79 2.0 6.0 0.00 0.24 0.24 59 1013.8
20260905133820 73 63 3.0 6.0 0.00 0.24 0.24 59 1013.8
20260905133312 73 135 2.0 4.0 0.00 0.24 0.24 57 1013.9
20260905132822 72 91 1.0 3.0 0.00 0.24 0.24 56 1014.0
20260905132313 71 91 1.0 7.0 0.00 0.24 0.24 55 1014.1
20260905131823 71 110 3.0 7.0 0.00 0.24 0.24 55 1014.1
20260905131335 70 82 4.0 7.0 0.00 0.24 0.24 54 1014.0
20260905130824 70 117 4.0 7.0 0.04 0.24 0.24 54 1014.1
20260905130315 69 105 3.0 7.0 0.07 0.24 0.24 54 1014.2
20260905125828 69 75 3.0 6.0 0.10 0.24 0.24 54 1014.3
20260905125341 69 101 3.0 10.0 0.10 0.24 0.24 54 1014.4
20260905124831 69 92 2.0 10.0 0.11 0.24 0.24 54 1014.5
20260905124323 69 101 3.0 7.0 0.11 0.24 0.24 54 1014.8
20260905123813 69 78 2.0 8.0 0.11 0.24 0.24 54 1014.9
20260905123325 69 94 2.0 6.0 0.11 0.24 0.24 54 1015.0
20260905122816 69 123 2.0 9.0 0.12 0.24 0.24 54 1015.3
20260905122327 69 187 4.0 9.0 0.12 0.24 0.24 54 1015.5
20260905121819 70 134 2.0 5.0 0.12 0.24 0.24 54 1015.6
20260905121314 70 169 3.0 5.0 0.11 0.23 0.23 54 1015.3
20260905120826 71 99 2.0 4.0 0.08 0.20 0.20 53 1015.4
20260905120317 71 113 1.0 2.0 0.05 0.17 0.17 53 1015.6
20260905115846 72 240 1.0 2.0 0.02 0.14 0.14 53 1015.8
20260905115315 72 240 1.0 2.0 0.02 0.14 0.14 54 1015.8
20260905114846 72 240 2.0 4.0 0.01 0.13 0.13 55 1015.6
20260905114317 72 111 1.0 8.0 0.01 0.13 0.13 56 1015.4
20260905113828 72 110 4.0 12.0 0.01 0.13 0.13 56 1015.3
20260905113320 72 107 7.0 12.0 0.01 0.13 0.13 54 1014.9
20260905112815 73 57 4.0 12.0 0.00 0.12 0.12 53 1015.1
20260905112324 73 66 6.0 12.0 0.00 0.12 0.12 52 1015.2
20260905111814 73 127 4.0 16.0 0.00 0.12 0.12 52 1014.8
20260905111326 72 68 5.0 16.0 0.00 0.12 0.12 52 1014.4
20260905110817 71 33 8.0 14.0 0.00 0.12 0.12 52 1013.9
20260905110328 71 255 3.0 9.0 0.02 0.12 0.12 52 1012.3
20260905105817 71 210 5.0 9.0 0.03 0.12 0.12 52 1012.4
20260905105329 71 219 2.0 3.0 0.05 0.12 0.12 52 1012.5
20260905104820 71 153 1.0 1.0 0.12 0.12 0.12 53 1012.3
20260905104314 71 153 0.0 3.0 0.12 0.12 0.12 53 1011.9
20260905103825 71 153 1.0 4.0 0.12 0.12 0.12 53 1011.6
20260905103315 72 231 2.0 4.0 0.12 0.12 0.12 53 1011.6
20260905102827 72 262 2.0 4.0 0.12 0.12 0.12 53 1011.5
20260905102318 73 271 1.0 6.0 0.12 0.12 0.12 54 1011.3
20260905101830 72 273 3.0 5.0 0.12 0.12 0.12 53 1011.4
20260905101341 73 262 2.0 7.0 0.12 0.12 0.12 53 1011.7
20260905100313 73 294 4.0 21.0 0.10 0.10 0.10 54 1012.2
20260905095314 74 329 11.0 20.0 0.05 0.05 0.05 55 1012.9
20260905094825 74 346 8.0 18.0 0.00 0.00 0.00 54 1013.0
20260905094317 73 266 8.0 18.0 0.00 0.00 0.00 51 1013.1
20260905093826 72 263 6.0 13.0 0.00 0.00 0.00 52 1013.1
20260905093317 72 287 0.0 3.0 0.00 0.00 0.00 52 1012.4
20260905092829 72 79 1.0 3.0 0.00 0.00 0.00 52 1012.2
20260905092320 72 79 1.0 1.0 0.00 0.00 0.00 52 1012.1
20260905091816 72 79 0.0 1.0 0.00 0.00 0.00 51 1012.1
20260905091327 73 79 0.0 2.0 0.00 0.00 0.00 51 1011.9
20260905090819 73 79 0.0 2.0 0.00 0.00 0.00 51 1011.7
20260905090331 73 79 2.0 2.0 0.00 0.00 0.00 51 1011.6
20260905085821 72 79 1.0 2.0 0.00 0.00 0.00 51 1011.5
20260905085312 72 79 1.0 2.0 0.00 0.00 0.00 51 1011.5
20260905084824 72 79 1.0 1.0 0.00 0.00 0.00 52 1011.6
20260905084335 72 79 0.0 0.0 0.00 0.00 0.00 52 1011.6
20260905083845 72 79 0.0 0.0 0.00 0.00 0.00 51 1011.6
20260905083320 72 79 0.0 0.0 0.00 0.00 0.00 52 1011.6
20260905082813 72 79 0.0 0.0 0.00 0.00 0.00 52 1011.6
20260905082325 72 79 0.0 1.0 0.00 0.00 0.00 51 1011.5
20260905081816 72 79 0.0 1.0 0.00 0.00 0.00 51 1011.4
20260905081327 72 79 0.0 1.0 0.00 0.00 0.00 51 1011.4
20260905080818 72 79 0.0 0.0 0.00 0.00 0.00 51 1011.4
20260905080330 72 79 0.0 0.0 0.00 0.00 0.00 51 1011.3
20260905075819 72 79 0.0 0.0 0.00 0.00 0.00 51 1011.3
20260905075351 72 79 0.0 0.0 0.00 0.00 0.00 51 1011.2
20260905074825 72 79 0.0 0.0 0.00 0.00 0.00 51 1011.2
20260905074316 72 79 0.0 1.0 0.00 0.00 0.00 52 1011.1
20260905073826 72 79 0.0 1.0 0.00 0.00 0.00 52 1011.1
20260905073317 72 79 0.0 0.0 0.00 0.00 0.00 52 1011.1
20260905072828 72 79 0.0 0.0 0.00 0.00 0.00 51 1011.1
20260905072320 72 79 0.0 0.0 0.00 0.00 0.00 51 1011.2
20260905071811 72 79 0.0 0.0 0.00 0.00 0.00 51 1011.3
20260905071323 72 79 0.0 0.0 0.00 0.00 0.00 51 1011.6
20260905070818 72 79 0.0 0.0 0.00 0.00 0.00 51 1011.5
20260905070350 73 79 0.0 0.0 0.00 0.00 0.00 51 1011.6
20260905065317 73 79 0.0 0.0 0.00 0.00 0.00 51 1011.8
20260905064829 73 79 0.0 0.0 0.00 0.00 0.00 51 1011.8
20260905064320 73 79 0.0 0.0 0.00 0.00 0.00 51 1011.9
20260905063852 73 79 0.0 0.0 0.00 0.00 0.00 51 1011.9
20260905063322 73 79 0.0 0.0 0.00 0.00 0.00 51 1012.0
20260905062813 73 79 0.0 0.0 0.00 0.00 0.00 51 1012.0
20260905062325 73 79 0.0 1.0 0.00 0.00 0.00 51 1012.2
20260905061820 73 79 0.0 1.0 0.00 0.00 0.00 51 1012.2
20260905061312 73 79 0.0 0.0 0.00 0.00 0.00 51 1012.1
20260905060824 73 79 0.0 0.0 0.00 0.00 0.00 51 1012.2
20260905060316 73 79 0.0 0.0 0.00 0.00 0.00 51 1012.2
20260905055825 73 79 0.0 0.0 0.00 0.00 0.00 51 1012.3
20260905055336 73 79 0.0 0.0 0.00 0.00 0.00 51 1012.4
20260905054826 73 79 0.0 1.0 0.00 0.00 0.00 52 1012.5
20260905054318 73 79 0.0 1.0 0.00 0.00 0.00 52 1012.5
20260905053813 73 79 1.0 1.0 0.00 0.00 0.00 52 1012.6
20260905053325 73 79 0.0 0.0 0.00 0.00 0.00 52 1012.6
20260905052816 74 79 0.0 1.0 0.00 0.00 0.00 52 1012.7
20260905052348 74 79 0.0 1.0 0.00 0.00 0.00 52 1012.7
20260905051818 74 79 1.0 2.0 0.00 0.00 0.00 52 1012.7
20260905051329 74 79 0.0 1.0 0.00 0.00 0.00 52 1012.7
20260905050820 74 79 0.0 1.0 0.00 0.00 0.00 52 1012.7
20260905045847 74 79 0.0 0.0 0.00 0.00 0.00 52 1012.8
20260905045318 74 79 0.0 0.0 0.00 0.00 0.00 52 1012.7
20260905044813 74 79 0.0 0.0 0.00 0.00 0.00 52 1012.8
20260905044324 74 79 0.0 0.0 0.00 0.00 0.00 52 1012.8
20260905043814 74 79 0.0 0.0 0.00 0.00 0.00 52 1012.8
20260905043326 74 79 0.0 0.0 0.00 0.00 0.00 52 1012.8
20260905042816 74 79 0.0 0.0 0.00 0.00 0.00 52 1012.8
20260905042328 74 79 0.0 0.0 0.00 0.00 0.00 52 1012.8
20260905041819 74 79 0.0 0.0 0.00 0.00 0.00 52 1012.9
20260905041330 74 79 0.0 0.0 0.00 0.00 0.00 52 1013.0
20260905040825 74 79 0.0 0.0 0.00 0.00 0.00 53 1013.0
20260905040316 75 79 0.0 0.0 0.00 0.00 0.00 53 1013.0
20260905035316 75 79 0.0 0.0 0.00 0.00 0.00 53 1012.9
20260905034828 75 79 0.0 1.0 0.00 0.00 0.00 53 1012.9
20260905034319 75 79 1.0 1.0 0.00 0.00 0.00 53 1012.8
20260905033830 75 79 0.0 1.0 0.00 0.00 0.00 55 1012.7
20260905033323 75 79 0.0 0.0 0.00 0.00 0.00 56 1012.7
20260905032818 76 79 0.0 0.0 0.00 0.00 0.00 56 1012.7
20260905032329 76 79 0.0 1.0 0.00 0.00 0.00 56 1012.7
20260905031820 75 79 0.0 1.0 0.00 0.00 0.00 56 1012.7
20260905031312 76 79 0.0 1.0 0.00 0.00 0.00 56 1012.7
20260905030823 76 79 0.0 1.0 0.00 0.00 0.00 56 1012.8
20260905030316 76 79 0.0 1.0 0.00 0.00 0.00 56 1012.7
20260905025824 76 79 0.0 1.0 0.00 0.00 0.00 55 1012.7
20260905025316 76 79 0.0 0.0 0.00 0.00 0.00 55 1012.7
20260905024811 76 79 0.0 0.0 0.00 0.00 0.00 57 1012.8
20260905024322 76 79 0.0 1.0 0.00 0.00 0.00 59 1012.8
20260905023834 76 79 0.0 1.0 0.00 0.00 0.00 59 1012.8
20260905023405 76 79 0.0 1.0 0.00 0.00 0.00 61 1012.7
20260905022831 77 79 0.0 2.0 0.00 0.00 0.00 62 1012.8
20260905022321 77 79 1.0 2.0 0.00 0.00 0.00 63 1012.7
20260905021831 77 79 1.0 1.0 0.00 0.00 0.00 64 1012.8
20260905021322 77 79 0.0 1.0 0.00 0.00 0.00 65 1012.7
20260905020834 78 79 0.0 1.0 0.00 0.00 0.00 65 1012.7
20260905020324 78 79 0.0 1.0 0.00 0.00 0.00 66 1012.8
20260905015813 78 79 0.0 1.0 0.00 0.00 0.00 66 1012.7
20260905015324 78 79 0.0 1.0 0.00 0.00 0.00 66 1012.7
20260905014835 78 79 1.0 1.0 0.00 0.00 0.00 65 1012.7
20260905014329 78 79 0.0 1.0 0.00 0.00 0.00 66 1012.8
20260905013819 79 79 0.0 1.0 0.00 0.00 0.00 67 1012.8
20260905013329 79 79 0.0 2.0 0.00 0.00 0.00 67 1012.7
20260905012821 79 79 0.0 1.0 0.00 0.00 0.00 67 1012.5
20260905012313 79 79 0.0 1.0 0.00 0.00 0.00 67 1012.5
20260905011823 79 79 0.0 1.0 0.00 0.00 0.00 67 1012.4
20260905011315 79 79 0.0 1.0 0.00 0.00 0.00 67 1012.4
20260905010826 79 79 0.0 2.0 0.00 0.00 0.00 67 1012.4
20260905010318 80 79 1.0 3.0 0.00 0.00 0.00 67 1012.5
20260905005831 80 125 2.0 3.0 0.00 0.00 0.00 67 1012.4
20260905005322 80 83 2.0 4.0 0.00 0.00 0.00 67 1012.2
20260905004814 81 91 1.0 2.0 0.00 0.00 0.00 68 1012.1
20260905004346 81 93 1.0 2.0 0.00 0.00 0.00 68 1011.9